Regional Weather Roundup
Issued by NWS

Home | Current Version | Previous Version | Text Only | Print | Product List | Glossary On
Versions: 1 2 3 4 5 6 7 8 9 10 11 12 13 14 15 16 17 18 19 20 21 22 23 24 25 26 27 28 29 30 31 32 33 34 35 36 37 38 39 40 41 42 43 44 45 46 47 48 49 50
000
ASUS43 KLOT 032322
RWRIL

ILLINOIS REGIONAL WEATHER ROUNDUP
NATIONAL WEATHER SERVICE CHICAGO/ROMEOVILLE IL
600 PM CDT WED JUN 03 2015

NOTE: "FAIR" INDICATES FEW OR NO CLOUDS BELOW 12,000 FEET WITH NO
SIGNIFICANT WEATHER AND/OR OBSTRUCTIONS TO VISIBILITY.

* THESE STATIONS ARE NOT UNDER NWS QUALITY CONTROL. THEY ALSO MAY NOT
  REPORT WEATHER SUCH AS PRECIPITATION OR FOG.

ILZ001-002-007-009-015-016-024-040000-
NORTHWEST ILLINOIS

CITY           SKY/WX    TMP DP  RH WIND       PRES   REMARKS
MOLINE         PTSUNNY   77  58  51 S14       29.90F
STERLING*      SUNNY     79  57  47 S7        29.93S HX  80
SAVANNA*       MOSUNNY   78  54  43 S10       29.91S
$$

ILZ003-004-008-010-011-017-018-040000-
NORTH CENTRAL ILLINOIS

CITY           SKY/WX    TMP DP  RH WIND       PRES   REMARKS
ROCKFORD       PTSUNNY   78  55  44 S14       29.94F
FREEPORT*      MOSUNNY   76  56  48 S16       29.94F
ROCHELLE*      MOSUNNY   78  55  43 S15       29.94F
DE KALB*       PTSUNNY   75  57  54 S14       29.97S
PERU*          MOSUNNY   78  53  42 S14       29.95F
$$

ILZ005-006-012>014-019>023-040000-
NORTHEAST ILLINOIS

CITY           SKY/WX    TMP DP  RH WIND       PRES   REMARKS
CHICAGO-OHARE  CLOUDY    75  53  46 S8        29.96F
CHICAGO-MIDWAY PTSUNNY   78  52  40 SE10      29.96F
AURORA         MOSUNNY   79  55  43 S14       29.95F
LANSING*       SUNNY     74  50  41 SE9       29.98F
JOLIET*        MOSUNNY   77  58  51 S8        29.96F
WAUKEGAN       PTSUNNY   63  52  67 E8        29.97F
DUPAGE AIRPORT MOSUNNY   74  57  55 S7        29.96F
KANKAKEE*      SUNNY     75  55  49 SE9       29.99F
WHEELING       MOSUNNY   73  52  47 E9        29.98F
MORRIS*        MOSUNNY   78  55  44 S10       29.95S
ROMEOVILLE*    MOSUNNY   76  55  48 S10       29.97S
NORTHERLY ISL    N/A     60  53  77 SE2         N/A
$$

LMZ740>746-040000-
SOUTHERN LAKE MICHIGAN

STATION/POSITION SKY/WX   TEMP    WIND        PRES    VSBY  WAVE
                          AIR SEA DIR/SP/G                  HT/PER
                          (F)     (DEG/KT/KT) (MB)    (MI)  (FT/S)
SOUTHERN BUOY              50 39  100/  8/ 10 1016.4F         0
HARRISON CRIB              59      90/ 18/ 19   N/A
BURNHAM HARBOR             60      90/  4/  5   N/A
CALUMET HARBOR             62      70/  4/  6   N/A
BURNS HARBOR                       70/ 12/ 14 1016.3F
MICHIGAN CITY              60      20/  9/ 11   N/A
MICHIGAN CITY 6N           60 58   60/  8/ 10   N/A           1
ST. JOSEPH                 59 57   40/  8/ 10   N/A           1
$$

ILZ025>027-034>036-040-047-049-050-058-095>099-040000-
WEST-CENTRAL ILLINOIS

CITY           SKY/WX    TMP DP  RH WIND       PRES   REMARKS
QUINCY         CLOUDY    70  63  78 SW6       29.95R
GALESBURG*     MOSUNNY   74  58  57 SE9       29.92F
MACOMB*        MOSUNNY   74  61  62 SE10      29.94F
JACKSONVILLE*  PTSUNNY   74  62  65 SE13      29.93F
PITTSFIELD*    PTSUNNY   72  62  72 S7        29.95R
$$

ILZ028>032-037-038-041>044-048-051>054-059>061-040000-
CENTRAL ILLINOIS

CITY           SKY/WX    TMP DP  RH WIND       PRES   REMARKS
PONTIAC        MOSUNNY   78  59  52 S9        29.97F HX  80
BLOOMINGTON    MOSUNNY   75  59  57 S9        29.98F
DECATUR        MOSUNNY   75  56  51 S8        29.97F
PEORIA         MOSUNNY   78  59  51 S14       29.94F
LACON*         MOSUNNY   75  57  54 S7        29.94F
LINCOLN*       PTSUNNY   75  58  54 S8        29.94F
SPRINGFIELD    PTSUNNY   78  60  53 S14G22    29.95F
TAYLORVILLE    PTSUNNY   73  59  60 S9        29.97F
$$

ILZ033-039-045-046-055>057-062-063-040000-
EAST-CENTRAL ILLINOIS

CITY           SKY/WX    TMP DP  RH WIND       PRES   REMARKS
CHAMPAIGN      SUNNY     76  56  49 SE8       29.98F
DANVILLE*      SUNNY     73  54  52 SE6       29.98S HAZE
RANTOUL*       MOSUNNY   78  56  46 SE6       29.97F
MATTOON        SUNNY     73  58  59 SE7       29.98F
PARIS*         SUNNY     73  56  53 SE5       30.01F
$$

ILZ079-100>102-040000-
SOUTHWEST ILLINOIS

CITY           SKY/WX    TMP DP  RH WIND       PRES   REMARKS
ALTON          PTSUNNY   72  66  83 SE9       29.95F
BELLEVILLE     PTSUNNY   73  63  70 S8        29.94F
CAHOKIA*       PTSUNNY   74  62  66 SE8       29.94F
SPARTA*        MOSUNNY   73  61  66 S5        29.97F
$$

ILZ064>066-069>071-074>076-080>082-084>086-088>090-092>094-040000-
SOUTH-CENTRAL ILLINOIS

CITY           SKY/WX    TMP DP  RH WIND       PRES   REMARKS
CARBONDALE     MOSUNNY   78  57  48 NE3       29.97F
CAIRO*         SUNNY     78  56  46 CALM      29.97F
EFFINGHAM*     SUNNY     73  55  52 SE6       30.00F
MARION         MOSUNNY   77  59  53 MISG      29.99F
MT. VERNON     SUNNY     75  57  53 CALM      29.99F
CENTRALIA*     MOSUNNY   78  57  48 SE6       29.98F
SALEM*         MOSUNNY   76  59  55 SE6       29.98F
METROPOLIS*    SUNNY     77  58  51 CALM      29.99S
$$

ILZ067-068-072-073-078-083-087-091-040000-
SOUTHEAST ILLINOIS

CITY           SKY/WX    TMP DP  RH WIND       PRES   REMARKS
LAWRENCEVILLE  SUNNY     73  56  54 E7        30.01S
FLORA*         SUNNY     74  57  56 SE3       29.99F
FAIRFIELD*     SUNNY     74  58  56 SE3       29.99S
HARRISBURG*    SUNNY     76  55  47 E6        29.99F
ROBINSON*      SUNNY     73  55  54 SE8       30.01F
CARMI*         SUNNY     75  48  38 NE3       29.98F
$$

ABBREVIATIONS USED IN REMARKS
   TC - TEMPERATURE IN CELSIUS
  WCI - WIND CHILL INDEX
   HX - HEAT INDEX
  VSB - VISIBILITY
$$




USA.gov is the U.S. government's official web portal to all federal, state and local government web resources and services.